Location: Franzen
(48.6167°N, 15.3833°E)
Time: 14:00:43
(UTC+00:00)

Cosmos 1862 - Pass Details

Date: 22 April 2021
Orbit: 537 x 556 km, 82.5° (Epoch: 16 May)

Event Time Altitude Azimuth Distance (km) Brightness Sun altitude
Rises 19:59:25 0° 357° (N) 2,704 7.6 -17.4°
Reaches altitude 10° 20:01:44 10° 8° (N) 1,808 6.4 -17.7°
Maximum altitude 20:05:21 33° 73° (ENE) 919 4.2 -18.1°
Enters shadow 20:05:49 32° 88° (E) 939 4.1 -18.2°
